Location: Stigler
(35.2540°N, 95.1230°W)
Time: 02:16:45
(UTC-05:00)

Daily predictions for brighter satellites

Satellite Brightness Start Highest point End
(mag) Time Altitude Azimuth Time Altitude Azimuth Time Altitude Azimuth
Milstar 3 3.4 04:43:14 44° SE 04:43:14 44° SE 04:48:40 10° ESE
Cosmos 1656 Rocket 3.7 05:09:35 76° ESE 05:09:35 76° ESE 05:15:16 10° NNE
SJ 16-02 4.0 05:08:19 10° SE 05:11:20 18° E 05:14:23 10° NE
NOSS 3-1 (C) 3.7 05:10:26 47° SSE 05:11:43 59° ESE 05:17:45 10° NE
OAO 2 Rocket 3.7 05:12:44 59° E 05:12:44 59° E 05:16:46 10° E
USA 229 DEB 3.6 05:13:07 65° NW 05:13:07 65° NW 05:19:45 10° NNE
USA 229 3.6 05:13:10 66° NW 05:13:10 66° NW 05:19:50 10° NNE
NOSS 3-1 (A) 4.3 05:14:01 22° S 05:17:21 44° ESE 05:23:07 10° NE
Cosmos 1943 Rocket 3.7 05:29:28 21° NNW 05:29:28 21° NNW 05:31:48 10° N
Nadezhda 1 Rocket 4.0 05:27:23 60° W 05:27:45 61° W 05:34:03 10° N
USA 267 3.2 05:21:32 10° SSE 05:28:01 65° SW 05:29:28 52° WNW
CZ-4C R/B 2.9 05:25:41 21° NNW 05:31:02 88° WSW 05:39:09 10° SSE
CZ-4B R/B 3.3 05:25:59 10° NNE 05:31:27 74° ESE 05:37:01 10° S
Tiangong 2 3.2 05:32:51 26° NE 05:32:51 26° NE 05:34:48 10° E
ADEOS II 3.4 05:30:56 10° N 05:33:24 25° NNW 05:33:24 25° NNW
Cosmos 44 3.1 05:39:12 68° SW 05:39:12 68° SW 05:43:55 10° SSE
CZ-3A R/B 4.1 05:37:54 25° SSW 05:39:49 30° S 05:54:07 10° ESE
Okean O Rocket 1.7 05:41:11 10° N 05:44:59 54° NW 05:44:59 54° NW
Meteor PRIRODA 3.6 05:43:58 10° NNE 05:47:44 85° E 05:49:03 39° S
Shenzhou-11 Module 2.3 05:54:22 64° ESE 05:54:22 64° ESE 05:57:01 10° ESE
IRS-1C Rocket 4.0 05:49:07 10° N 05:54:24 77° WNW 05:59:39 10° SSW
Cosmos 1758 Rocket 3.9 05:55:29 45° WNW 05:55:29 45° WNW 05:59:28 10° N
Cosmos 1125 Rocket 3.5 05:52:55 10° SSW 05:58:08 83° ESE 06:03:26 10° NNE
Okean-O 4.0 05:54:54 10° NNE 05:59:05 41° E 06:03:15 10° S
Cosmos-2242 3.1 05:55:36 10° N 05:59:54 77° E 06:04:13 10° S
Cosmos 44 Rocket 3.6 05:59:46 40° W 06:00:34 43° WSW 06:05:14 10° S
Meteor 1-24 Rocket 4.3 05:56:48 10° S 06:02:45 66° E 06:08:39 10° NNE
Cosmos 2154 Rocket 4.1 05:57:12 10° NNW 06:03:18 52° W 06:09:21 10° SSW
COSMO-SKYMED 1 4.1 06:09:00 10° SE 06:13:00 39° ENE 06:17:03 10° N
Cosmos 2227 Rocket 4.3 06:08:32 10° N 06:13:12 26° ENE 06:17:51 10° ESE
SL-8 Rocket 4.1 06:09:34 10° N 06:15:55 85° E 06:22:15 10° S
Meteor 1-31 Rocket 3.0 06:14:09 10° N 06:17:46 43° WNW 06:21:22 10° SSW
MTI 4.0 06:14:34 10° SSE 06:17:47 70° ENE 06:21:01 10° N
Feng Yun 1-1 Rocket 4.4 06:14:20 10° NNE 06:20:00 80° ESE 06:25:46 10° S
Cosmos 1707 4.5 06:26:22 17° NW 06:26:22 17° NW 06:27:53 10° NNW
Meteor 2-21 4.4 06:19:02 10° NNW 06:25:00 63° W 06:31:00 10° S
Cosmos 1842 Rocket 3.9 06:27:12 10° N 06:31:33 68° E 06:35:50 10° SSE
Cosmos 1048 Rocket 4.0 06:26:21 10° NNW 06:31:34 89° ENE 06:36:50 10° SSE
Cosmos 2219 3.2 06:33:43 10° NNW 06:39:20 67° WSW 06:44:53 10° S
Cosmos 2218 Rocket 4.0 06:34:31 10° N 06:40:45 73° W 06:47:02 10° S
Meteor 2-5 Rocket 4.4 06:36:17 10° SW 06:41:36 34° WNW 06:46:53 10° N
CZ-2C R/B 3.4 06:39:11 10° NNE 06:44:03 53° E 06:49:01 10° S
Intercosmos 24 4.1 06:39:40 10° NNW 06:44:03 49° W 06:47:34 10° SSW
GPS 2-04 Rocket1 3.3 06:41:41 15° W 06:44:24 38° SSW 06:47:47 10° SE
EO 1 Del DPAF 3.3 06:43:04 10° S 06:46:49 55° W 06:50:35 10° NNW
Cosmos 1908 4.2 06:43:12 10° N 06:46:56 50° E 06:50:39 10° SSE
Cosmos 2084 Rocket 3.9 06:42:53 10° SSW 06:47:14 66° ESE 06:51:21 10° NE
Meteor 2-8 Rocket 4.5 06:41:10 10° S 06:47:20 86° W 06:53:29 10° N
Cosmos 158 Rocket 4.3 06:44:15 10° NNW 06:49:27 50° WSW 06:54:36 10° S
SJ 16-02 2.1 06:45:45 10° SW 06:49:40 31° WNW 06:53:35 10° N
Cosmos 2297 Rocket 3.5 06:45:57 10° N 06:51:19 43° ENE 06:56:40 10° SE
Meteor 2-1 Rocket 4.3 06:48:37 10° NNW 06:54:32 78° W 07:00:20 10° S
ATLAS 2AS CENTAUR R/B 4.3 06:49:03 10° S 06:56:09 46° ESE 07:03:44 10° NE
OAO 2 Rocket 3.5 06:51:42 11° W 06:56:30 61° SSW 07:01:21 10° ESE
Cosmos 1656 4.1 06:52:21 10° SSW 06:58:00 73° ESE 07:03:42 10° NNE
Nadezhda 3 Rocket 4.3 06:52:50 10° S 06:59:10 78° E 07:05:27 10° N
Cosmos 1697 Rocket 3.9 06:54:08 10° S 06:59:32 48° ESE 07:04:57 10° NNE
SKYMED 2 3.7 06:56:44 10° S 07:00:58 54° W 07:05:15 10° NNW
MINOTAUR R/B 4.1 06:58:29 10° NNW 07:01:07 67° WSW 07:03:43 10° SSE
NOSS 2-3 (E) 3.9 06:58:57 10° SSW 07:03:29 85° ESE 07:08:39 10° NNE
CZ-3 R/B 3.8 07:03:12 10° W 07:18:39 26° SW 07:24:35 10° S
